User: anonymous   Login
Location: Unspecified
(34.6937°N, 0.0000°E)
Time: 14:25:24
(UTC+00:00)
Language:

Uosat 12 SS-18 rocket - Orbit

View from above orbital plane
View from above orbital plane
View from above satellite
View from above satellite

Ground track
Ground track

The orbit is defined by the following mean orbital elements,

1 25695U          26088.12412795 +.00000000 +00000-0 +10111-3 0 00002
2 25695  64.5568   6.1416 0561054 326.6165  30.0643 13.73039838    02
Epoch (UTC): 29 March 2026 02:58:44
Eccentricity: 0.0561054
inclination: 64.5568°
perigee height: 575 km
apogee height: 1402 km
right ascension of ascending node: 6.1416°
argument of perigee: 326.6165°
revolutions per day: 13.73039838
mean anomaly at epoch: 30.0643°

The dashed part of the orbit path shows where the satellite is in the earth's shadow,  

DLR